Middletown, OH

6:15 PM EST on February 22, 2017 (GMT -0500)
Hook Field Municipal

Weather History for KMWO - April, 2014

Change the Weather History Date:

Thursday, April 24, 2014

  Actual Average (KFFO) Record (KFFO)
Temperature  
Mean Temperature 54 °F -  
Max Temperature 66 °F 63 °F 78 °F (2008)
Min Temperature 41 °F 41 °F 29 °F (2015)
Degree Days  
Heating Degree Days 12    
Growing Degree Days 4 (Base 50)    
Moisture  
Dew Point 21 °F    
Average Humidity 32    
Maximum Humidity 76    
Minimum Humidity 12    
Precipitation  
Precipitation 0.00 in - - ()
Sea Level Pressure  
Sea Level Pressure 30.02 in    
Wind  
Wind Speed 5 mph (East)    
Max Wind Speed 13 mph    
Max Gust Speed 20 mph    
Visibility 10 miles    
Events      
Averages and records for this station are not official NWS values.
T = Trace of Precipitation, MM = Missing Value Source: NWS Daily Summary

Daily Weather History Graph

Daily Weather History Graph

Search for Another Location

Airport or City:

Trip Planner

Search our weather history database for the weather conditions in past years. The results will help you decide how hot, cold, wet, or windy it might be!

Date:

Astronomy

Apr. 24, 2014 Rise Set
Actual Time 6:47 AM EDT 8:24 PM EDT
Civil Twilight 6:19 AM EDT 8:53 PM EDT
Nautical Twilight 5:44 AM EDT 9:27 PM EDT
Astronomical Twilight 5:08 AM EDT 10:04 PM EDT
Moon 3:56 AM EDT (4/24) 3:40 PM EDT (4/24)
Length of Visible Light 14h 33m
Length of Day
13h 36m
Waning Crescent, 24% of the Moon is Illuminated
Apr 24
Waning Crescent
Apr 29
New
May 6
First Quarter
May 14
Full
May 21
Last Quarter

Hourly Weather History & Observations

Time (EDT) Temp. Windchill Dew Point Humidity Pressure Visibility Wind Dir Wind Speed Gust Speed Precip Events Conditions
12:15 AM 41.2 °F 39.2 °F 33.8 °F 75% 30.11 in 10.0 mi North 3.5 mph - N/A   Clear
12:35 AM 41.4 °F - 34.2 °F 76% 30.11 in 10.0 mi Calm Calm - N/A   Clear
12:55 AM 42.8 °F - 35.8 °F 76% 30.11 in 10.0 mi Calm Calm - N/A   Clear
1:15 AM 45.1 °F - 37.9 °F 76% 30.11 in 10.0 mi Calm Calm - N/A   Clear
1:35 AM 47.7 °F - 34.0 °F 59% 30.11 in 10.0 mi ENE 5.8 mph - N/A   Clear
1:55 AM 47.7 °F - 32.9 °F 57% 30.10 in 10.0 mi East 6.9 mph - N/A   Clear
2:15 AM 47.7 °F - 32.4 °F 55% 30.08 in 10.0 mi East 6.9 mph - N/A   Mostly Cloudy
2:35 AM 47.7 °F - 30.9 °F 52% 30.08 in 10.0 mi East 9.2 mph - N/A   Overcast
2:55 AM 47.7 °F - 30.4 °F 51% 30.09 in 10.0 mi ENE 4.6 mph - N/A   Overcast
3:15 AM 47.7 °F - 29.8 °F 50% 30.09 in 10.0 mi NE 3.5 mph - N/A   Overcast
3:35 AM 47.7 °F - 30.6 °F 52% 30.09 in 10.0 mi Calm Calm - N/A   Overcast
3:55 AM 47.7 °F - 31.3 °F 53% 30.09 in 10.0 mi East 3.5 mph - N/A   Overcast
4:15 AM 47.7 °F - 30.7 °F 52% 30.09 in 10.0 mi East 4.6 mph - N/A   Scattered Clouds
4:35 AM 47.7 °F - 31.3 °F 53% 30.09 in 10.0 mi ENE 3.5 mph - N/A   Clear
4:55 AM 45.1 °F 42.0 °F 30.7 °F 57% 30.08 in 10.0 mi ENE 5.8 mph - N/A   Clear
5:15 AM 47.7 °F - 31.3 °F 53% 30.10 in 10.0 mi ENE 3.5 mph - N/A   Clear
5:35 AM 47.7 °F - 30.2 °F 51% 30.11 in 10.0 mi Calm Calm - N/A   Mostly Cloudy
5:55 AM 47.7 °F - 27.3 °F 45% 30.12 in 10.0 mi East 4.6 mph - N/A   Overcast
6:15 AM 47.7 °F - 27.5 °F 46% 30.11 in 10.0 mi East 3.5 mph - N/A   Overcast
6:35 AM 47.7 °F - 27.0 °F 45% 30.11 in 10.0 mi East 5.8 mph - N/A   Overcast
6:55 AM 47.7 °F - 25.5 °F 42% 30.12 in 10.0 mi East 5.8 mph - N/A   Overcast
7:15 AM 47.7 °F - 25.0 °F 41% 30.13 in 10.0 mi East 4.6 mph - N/A   Overcast
7:35 AM 47.7 °F - 25.9 °F 43% 30.14 in 10.0 mi East 4.6 mph - N/A   Overcast
7:55 AM 47.7 °F - 25.5 °F 42% 30.15 in 10.0 mi East 8.1 mph - N/A   Mostly Cloudy
8:15 AM 47.7 °F - 25.2 °F 41% 30.15 in 10.0 mi ESE 6.9 mph - N/A   Scattered Clouds
8:35 AM 47.7 °F - 24.6 °F 41% 30.14 in 10.0 mi ESE 6.9 mph - N/A   Clear
8:55 AM 47.7 °F - 23.5 °F 39% 30.15 in 10.0 mi ESE 9.2 mph - N/A   Mostly Cloudy
9:15 AM 47.7 °F - 21.2 °F 35% 30.14 in 10.0 mi ESE 6.9 mph - N/A   Overcast
9:35 AM 49.1 °F - 20.5 °F 32% 30.14 in 10.0 mi East 5.8 mph - N/A   Scattered Clouds
9:55 AM 50.2 °F - 17.6 °F 28% 30.14 in 10.0 mi ESE 8.1 mph - N/A   Clear
10:15 AM 50.5 °F - 16.7 °F 26% 30.13 in 10.0 mi East 8.1 mph - N/A   Clear
10:35 AM 52.7 °F - 16.3 °F 24% 30.13 in 10.0 mi ESE 10.4 mph - N/A   Clear
10:55 AM 52.7 °F - 14.2 °F 22% 30.12 in 10.0 mi ESE 11.5 mph 17.3 mph N/A   Clear
11:15 AM 54.0 °F - 13.3 °F 20% 30.12 in 10.0 mi ESE 10.4 mph 16.1 mph N/A   Clear
11:35 AM 55.4 °F - 14.4 °F 20% 30.11 in 10.0 mi ESE 9.2 mph 16.1 mph N/A   Scattered Clouds
11:55 AM 55.4 °F - 11.5 °F 17% 30.10 in 10.0 mi East 10.4 mph 18.4 mph N/A   Mostly Cloudy
12:15 PM 57.7 °F - 11.7 °F 16% 30.09 in 10.0 mi ESE 12.7 mph 19.6 mph N/A   Scattered Clouds
12:35 PM 57.7 °F - 12.4 °F 17% 30.08 in 10.0 mi East 11.5 mph - N/A   Clear
12:55 PM 57.7 °F - 10.2 °F 15% 30.07 in 10.0 mi SSE 8.1 mph - N/A   Clear
1:15 PM 57.9 °F - 12.4 °F 17% 30.05 in 10.0 mi South 11.5 mph - N/A   Clear
1:35 PM 58.3 °F - 13.1 °F 17% 30.04 in 10.0 mi ESE 9.2 mph - N/A   Clear
1:55 PM 59.4 °F - 10.6 °F 15% 30.03 in 10.0 mi ESE 10.4 mph - N/A   Clear
2:15 PM 60.1 °F - 12.7 °F 16% 30.02 in 10.0 mi ESE 11.5 mph 18.4 mph N/A   Clear
2:35 PM 61.0 °F - 11.3 °F 14% 30.01 in 10.0 mi SE 5.8 mph - N/A   Clear
2:55 PM 61.7 °F - 12.0 °F 14% 30.00 in 10.0 mi SE 5.8 mph - N/A   Clear
3:15 PM 62.6 °F - 10.6 °F 13% 29.99 in 10.0 mi SSE 10.4 mph - N/A   Clear
3:35 PM 62.6 °F - 12.7 °F 14% 29.98 in 10.0 mi SE 10.4 mph - N/A   Clear
3:55 PM 62.6 °F - 12.0 °F 14% 29.97 in 10.0 mi ESE 9.2 mph - N/A   Clear
4:15 PM 62.6 °F - 12.7 °F 14% 29.96 in 10.0 mi East 8.1 mph - N/A   Clear
4:35 PM 62.8 °F - 14.0 °F 15% 29.95 in 10.0 mi ESE 8.1 mph - N/A   Scattered Clouds
4:55 PM 64.8 °F - 14.4 °F 14% 29.94 in 10.0 mi SE 6.9 mph - N/A   Scattered Clouds
5:15 PM 66.2 °F - 14.7 °F 14% 29.94 in 10.0 mi ESE 9.2 mph - N/A   Scattered Clouds
5:35 PM 65.5 °F - 16.0 °F 15% 29.92 in 10.0 mi ESE 12.7 mph - N/A   Clear
5:55 PM 64.9 °F - 13.5 °F 14% 29.92 in 10.0 mi ESE 8.1 mph - N/A   Clear
6:15 PM 65.1 °F - 15.3 °F 15% 29.91 in 10.0 mi SE 8.1 mph - N/A   Clear
6:35 PM 65.3 °F - 11.3 °F 12% 29.90 in 10.0 mi SSE 11.5 mph - N/A   Clear
6:55 PM 64.9 °F - 10.9 °F 12% 29.89 in 10.0 mi SE 10.4 mph - N/A   Clear
7:15 PM 62.6 °F - 9.3 °F 12% 29.88 in 10.0 mi ESE 8.1 mph - N/A   Clear
7:35 PM 62.6 °F - 11.1 °F 13% 29.87 in 10.0 mi ESE 8.1 mph - N/A   Clear
7:55 PM 61.0 °F - 11.3 °F 14% 29.88 in 10.0 mi SE 4.6 mph - N/A   Clear
8:15 PM 60.4 °F - 12.9 °F 16% 29.87 in 10.0 mi East 4.6 mph - N/A   Clear
8:35 PM 57.7 °F - 20.5 °F 24% 29.85 in 10.0 mi East 4.6 mph - N/A   Clear
8:55 PM 59.0 °F - 18.5 °F 21% 29.85 in 10.0 mi ENE 4.6 mph - N/A   Clear
9:15 PM 57.7 °F - 19.8 °F 23% 29.85 in 10.0 mi NE 3.5 mph - N/A   Clear
9:35 PM 55.4 °F - 25.9 °F 32% 29.85 in 10.0 mi Calm Calm - N/A   Clear
9:55 PM 52.7 °F - 30.2 °F 42% 29.85 in 10.0 mi NNE 4.6 mph - N/A   Clear
10:15 PM 52.7 °F - 27.7 °F 38% 29.85 in 10.0 mi Calm Calm - N/A   Clear
10:35 PM 55.4 °F - 20.8 °F 26% 29.83 in 10.0 mi NE 3.5 mph - N/A   Clear
10:55 PM 55.4 °F - 20.3 °F 25% 29.82 in 10.0 mi NE 4.6 mph - N/A   Scattered Clouds
11:15 PM 55.4 °F - 22.3 °F 28% 29.81 in 10.0 mi North 3.5 mph - N/A   Scattered Clouds
11:35 PM 55.4 °F - 21.6 °F 27% 29.80 in 10.0 mi North 3.5 mph - N/A   Clear
11:55 PM 54.9 °F - 22.6 °F 29% 29.80 in 10.0 mi NNE 4.6 mph - N/A   Scattered Clouds